Regional Weather Roundup
Issued by NWS

Home | Current Version | Previous Version | Graphics & Text | Print | Product List | Glossary On
Versions: 1 2 3 4 5 6 7 8 9 10 11 12 13 14 15 16 17 18 19 20 21 22 23 24 25 26 27 28 29 30 31 32 33 34 35 36 37 38 39 40 41 42 43 44 45 46 47 48 49 50
481
ASUS44 KJAN 191910
RWRMS

MISSISSIPPI HOURLY WEATHER ROUNDUP
NATIONAL WEATHER SERVICE JACKSON MS
200 PM CDT SAT APR 19 2014

NOTE: "FAIR: INDICATES FEW OR NO CLOUDS BELOW 12,000 FEET WITH NO
SIGNIFICANT WEATHER AND/OR OBSTRUCTIONS TO VISIBILITY.

MSZ001>002-007>008-010>013-018>021-025>028-034>036-192000-
NORTHWEST MISSISSIPPI

CITY           SKY/WX    TMP DP  RH WIND       PRES   REMARKS
CLARKSDALE       N/A     75  48  38 N10G18    30.18F
CLEVELAND      FAIR      75  50  41 NE6       30.17F
GREENWOOD      SUNNY     77  50  38 N5        30.16F
GREENVILLE     MOSUNNY   76  49  38 VRB6      30.17F
GRENADA        FAIR      77  43  29 N6        30.15F
OLIVE BRANCH   MOSUNNY   75  43  31 NE9       30.18F
OXFORD         FAIR      75  41  29 N3        30.17F
TUNICA         CLEAR     75  45  33 NE9       30.18F
$$

MSZ003>006-009-014>017-022>024-029>033-037>039-192000-
NORTHEAST MISSISSIPPI

CITY           SKY/WX    TMP DP  RH WIND       PRES   REMARKS
BELMONT        FAIR      75  44  33 N8        30.14F
COLUMBUS AFB   SUNNY     78  42  28 E8        30.13F
CORINTH        FAIR      75  36  23 NE6G17    30.16S
GOLDN TRIANGLE MOSUNNY   75  48  38 NE5       30.16F
STARKVILLE     FAIR      73  46  38 N8G16     30.14F
TUPELO         SUNNY     76  42  29 N10       30.15F
$$

MSZ040-058-192000-
CENTRAL MISSISSIPPI

CITY           SKY/WX    TMP DP  RH WIND       PRES   REMARKS
JACKSON INTL   MOSUNNY   76  50  40 N10       30.15F
JACKSON HAWKNS SUNNY     78  48  34 NE8       30.16F
MERIDIAN KEY   SUNNY     78  47  33 N14G21    30.12F
MERIDIAN NAS   SUNNY     78  48  34 NE13      30.13F
RAYMOND        FAIR      75  70  83 N3        30.16S
VICKSBURG      SUNNY     76  54  46 N6        30.17F
$$

MSZ059>079-192000-
SOUTH MISSISSIPPI

CITY           SKY/WX    TMP DP  RH WIND       PRES   REMARKS
BROOKHAVEN     FAIR      75  52  43 N10G17    30.17S
COLUMBIA       FAIR      77  52  41 MISG      30.12F
HATTIESBURG    SUNNY     76  50  40 N12G20    30.12F
MCCOMB         MOSUNNY   77  50  38 N8        30.15S
NATCHEZ        SUNNY     73  52  46 N8        30.17F
PINE BELT      MOSUNNY   75  50  41 NE12      30.13F
$$

MSZ080>082-192000-
COASTAL MISSISSIPPI

CITY           SKY/WX    TMP DP  RH WIND       PRES   REMARKS
BAY ST LOUIS   SUNNY     77  46  33 MISG      30.11F
BILOXI         SUNNY     76  51  41 N9G20     30.08F
PASCAGOULA     SUNNY     76  52  43 N12G21    30.08S
GULFPORT       SUNNY     80  49  33 N13G26    30.08F
$$



USA.gov is the U.S. government's official web portal to all federal, state and local government web resources and services.